Weather in Novomoskovskoye

Russia / Chelyabinsk Oblast     54°20′59″N   63°03′23″E
temp.,
°C
wind,
m/s
gust,
m/s
humid.,
%
clouds,
%
prec.,
mm/h
press.,
hPa
HPBL,
m
27 october, wed
wed2723:00−1sw375764 0.0 1025160
02:000sw5106089 0.0 1024336
05:00−1wsw4106376 0.0 1024260
08:00−1sw510628 0.0 1024274
11:00+2wsw684798 0.0 1024544
14:00+4wsw674686 0.0 1023931
17:00+3sw5955100 0.0 1022274
20:00+2sw5126599 0.0 1021337
28 october, thu
thu2823:00+1sw61268100 0.0 1020401
02:00+1sw61270100 0.0 1019424
05:00+1sw61371100 0.0 1017380
08:00+1sw7166686 0.0 1016441
11:00+4sw91653100 0.0 1014682
14:00+5wsw91546100 0.0 1013967
17:00+5wsw915497 0.1 1013848
20:00+3wsw7136513 0.0 1014502
29 october, fri
fri2923:00+2wsw7147555 0.0 1015397
02:00+2wsw61278100 0.0 1015431
05:00+2wsw61378100 0.0 1014420
08:00+2wsw61375100 0.0 1015448
11:00+5w7116792 0.0 1016803
14:00+2nnw6888100 0.1 1019623
17:00+1nnw69440 0.1 1023704
20:00−2nnw38530 0.0 1026323
30 october, sat
sat3023:00−3wnw36591 0.0 1028242
02:00−3w35675 0.0 1030143
05:00−4wsw3467100 0.0 103194
08:00−3sw3760100 0.0 1030208
11:000ssw61242100 0.0 1028517
14:00+2sw81558100 0.0 1024782
17:00+2wsw81567100 0.5 1021802
20:00+4wsw91667100 0.1 1019701
31 october, sun
sun3123:00+4w81678100 0.1 1018827
02:00+5wnw81584100 0.0 1019735
05:00+5wnw71487100 0.1 1021760
08:00+5wnw71387100 0.2 1023712
11:00+6nw61069100 0.3 10251129
14:00+6nw5858100 0.0 10261397
17:00+5wnw336797 0.0 102851
20:00+4w347786 0.0 102870